Back to catalog

CZ-6A DEB

AlivePO
NORAD 61292·DEBRIS·🇨🇳 China

Launched Aug 6, 2024 from Taiyuan Satellite Launch Center

Loading…

Next Passes (next 24 hours)

TLE

FreshSource: Space-Track

Epoch: Sep 14, 2026, 10:34 UTC

1 61292U 24140TD  26257.44029887  .00001521  00000-0  33885-3 0  9994
2 61292  89.0344 263.6405 0095158 333.3249  26.3080 14.53665574108353

Track CZ-6A DEB in real time with AllMySat

Download on the App Store